| time (UTC) | temp F | wind direction | speed MPH | gust MPH | rain 1hr in | rain 24hr in | rain mn in | humidity % | barometer mb |
| 20260502204523 | 60 | 241 | 0.0 | 2.0 | 0.00 | 0.00 | 0.00 | 42 | 1019.1 |
| 20260502203023 | 61 | 85 | 0.0 | 5.0 | 0.00 | 0.00 | 0.00 | 40 | 1019.5 |
| 20260502201521 | 60 | 300 | 1.0 | 7.0 | 0.00 | 0.00 | 0.00 | 44 | 1019.6 |
| 20260502200021 | 61 | 295 | 1.0 | 6.0 | 0.00 | 0.00 | 0.00 | 42 | 1019.7 |
| 20260502194520 | 62 | 28 | 1.0 | 4.0 | 0.00 | 0.00 | 0.00 | 41 | 1019.8 |
| 20260502193018 | 61 | 88 | 0.0 | 7.0 | 0.00 | 0.00 | 0.00 | 43 | 1019.8 |
| 20260502191520 | 61 | 340 | 2.0 | 9.0 | 0.00 | 0.00 | 0.00 | 44 | 1019.9 |
| 20260502190026 | 60 | 38 | 2.0 | 6.0 | 0.00 | 0.00 | 0.00 | 41 | 1019.9 |
| 20260502184515 | 59 | 206 | 0.0 | 6.0 | 0.00 | 0.00 | 0.00 | 44 | 1019.9 |
| 20260502183013 | 57 | 321 | 2.0 | 5.0 | 0.00 | 0.00 | 0.00 | 44 | 1020.0 |
| 20260502181511 | 56 | 292 | 2.0 | 7.0 | 0.00 | 0.00 | 0.00 | 44 | 1020.1 |
| 20260502163005 | 57 | 283 | 0.0 | 6.0 | 0.00 | 0.00 | 0.00 | 43 | 1020.0 |
| 20260502161502 | 58 | 330 | 0.0 | 8.0 | 0.00 | 0.00 | 0.00 | 44 | 1020.1 |
| 20260502151609 | 59 | 144 | 1.0 | 7.0 | 0.00 | 0.00 | 0.00 | 54 | 1019.8 |
| 20260502123039 | 50 | 339 | 0.0 | 3.0 | 0.00 | 0.00 | 0.00 | 76 | 1018.8 |
| 20260502121537 | 50 | 329 | 0.0 | 2.0 | 0.00 | 0.00 | 0.00 | 76 | 1018.6 |
| 20260502114533 | 49 | 296 | 1.0 | 3.0 | 0.00 | 0.00 | 0.00 | 76 | 1018.3 |
| 20260502113031 | 49 | 306 | 0.0 | 2.0 | 0.00 | 0.00 | 0.00 | 76 | 1017.9 |
| 20260502111528 | 49 | 311 | 0.0 | 1.0 | 0.00 | 0.00 | 0.00 | 76 | 1017.7 |
| 20260502110028 | 49 | 302 | 0.0 | 2.0 | 0.00 | 0.00 | 0.00 | 76 | 1017.7 |
| 20260502104538 | 49 | 314 | 0.0 | 0.0 | 0.00 | 0.00 | 0.00 | 75 | 1017.4 |
| 20260502103025 | 49 | 314 | 0.0 | 1.0 | 0.00 | 0.00 | 0.00 | 74 | 1017.3 |
| 20260502101523 | 49 | 306 | 0.0 | 1.0 | 0.00 | 0.00 | 0.00 | 74 | 1017.3 |
| 20260502091517 | 51 | 112 | 0.0 | 1.0 | 0.00 | 0.00 | 0.00 | 71 | 1017.1 |
| 20260502071502 | 53 | 109 | 0.0 | 3.0 | 0.00 | 0.00 | 0.00 | 64 | 1017.1 |
| 20260502064601 | 54 | 98 | 1.0 | 4.0 | 0.00 | 0.00 | 0.00 | 62 | 1017.2 |
| 20260502063105 | 54 | 116 | 0.0 | 3.0 | 0.00 | 0.00 | 0.00 | 62 | 1017.5 |
| 20260502061556 | 54 | 331 | 2.0 | 5.0 | 0.00 | 0.00 | 0.00 | 61 | 1017.8 |
| 20260502060108 | 54 | 96 | 0.0 | 3.0 | 0.00 | 0.00 | 0.00 | 60 | 1017.2 |
| 20260502054553 | 54 | 104 | 0.0 | 1.0 | 0.00 | 0.00 | 0.00 | 59 | 1017.3 |
| 20260502053100 | 54 | 101 | 0.0 | 1.0 | 0.00 | 0.00 | 0.00 | 58 | 1017.3 |
| 20260502051557 | 55 | 132 | 0.0 | 3.0 | 0.00 | 0.00 | 0.00 | 56 | 1017.4 |
| 20260502050053 | 56 | 93 | 0.0 | 7.0 | 0.00 | 0.00 | 0.00 | 56 | 1017.4 |
| 20260502044545 | 57 | 288 | 0.0 | 2.0 | 0.00 | 0.00 | 0.00 | 54 | 1017.4 |
| 20260502043044 | 57 | 129 | 0.0 | 1.0 | 0.00 | 0.00 | 0.00 | 53 | 1017.2 |
| 20260502041543 | 56 | 25 | 0.0 | 0.0 | 0.00 | 0.00 | 0.00 | 54 | 1017.3 |
| 20260502040047 | 56 | 25 | 0.0 | 0.0 | 0.00 | 0.00 | 0.00 | 54 | 1017.3 |
| 20260502034543 | 56 | 25 | 0.0 | 0.0 | 0.00 | 0.06 | 0.00 | 53 | 1017.4 |
| 20260502033043 | 56 | 10 | 0.0 | 0.0 | 0.00 | 0.06 | 0.00 | 52 | 1017.4 |
| 20260502031545 | 56 | 10 | 0.0 | 0.0 | 0.00 | 0.06 | 0.00 | 52 | 1017.4 |
| 20260502030042 | 57 | 7 | 0.0 | 0.0 | 0.00 | 0.06 | 0.00 | 46 | 1017.4 |
| 20260502024542 | 58 | 7 | 0.0 | 1.0 | 0.00 | 0.06 | 0.00 | 45 | 1017.5 |
| 20260502023041 | 58 | 113 | 0.0 | 1.0 | 0.00 | 0.06 | 0.00 | 48 | 1017.5 |
| 20260502021540 | 58 | 153 | 0.0 | 0.0 | 0.00 | 0.06 | 0.00 | 46 | 1017.3 |
| 20260502020040 | 57 | 153 | 0.0 | 0.0 | 0.00 | 0.06 | 0.00 | 46 | 1017.0 |
| 20260502014541 | 58 | 153 | 0.0 | 0.0 | 0.00 | 0.06 | 0.00 | 45 | 1016.7 |
| 20260502013049 | 58 | 179 | 0.0 | 0.0 | 0.00 | 0.06 | 0.00 | 43 | 1016.4 |
| 20260502011556 | 59 | 267 | 0.0 | 1.0 | 0.00 | 0.06 | 0.00 | 41 | 1016.1 |
| 20260502010044 | 59 | 250 | 0.0 | 0.0 | 0.00 | 0.06 | 0.00 | 39 | 1015.8 |
| 20260502004553 | 60 | 250 | 0.0 | 0.0 | 0.00 | 0.06 | 0.00 | 38 | 1015.8 |
| 20260502003037 | 60 | 250 | 0.0 | 0.0 | 0.00 | 0.06 | 0.00 | 37 | 1015.7 |
| 20260502001538 | 61 | 250 | 0.0 | 2.0 | 0.00 | 0.06 | 0.00 | 36 | 1015.7 |
| 20260502000035 | 62 | 259 | 0.0 | 2.0 | 0.00 | 0.06 | 0.00 | 34 | 1015.6 |
| 20260501234539 | 62 | 325 | 0.0 | 3.0 | 0.00 | 0.06 | 0.00 | 33 | 1015.4 |
| 20260501233039 | 62 | 286 | 2.0 | 8.0 | 0.00 | 0.06 | 0.00 | 33 | 1015.4 |
| 20260501231542 | 62 | 289 | 1.0 | 9.0 | 0.00 | 0.06 | 0.00 | 33 | 1015.1 |
| 20260501230033 | 62 | 323 | 0.0 | 8.0 | 0.00 | 0.06 | 0.00 | 33 | 1015.4 |
| 20260501224531 | 63 | 308 | 0.0 | 6.0 | 0.00 | 0.06 | 0.00 | 31 | 1015.6 |
| 20260501223031 | 63 | 289 | 1.0 | 8.0 | 0.00 | 0.06 | 0.00 | 30 | 1015.8 |
| 20260501221527 | 63 | 303 | 2.0 | 6.0 | 0.00 | 0.06 | 0.00 | 33 | 1016.0 |
| 20260501220039 | 63 | 293 | 0.0 | 8.0 | 0.00 | 0.06 | 0.00 | 32 | 1016.2 |
| 20260501214529 | 64 | 301 | 2.0 | 6.0 | 0.00 | 0.06 | 0.00 | 31 | 1016.2 |
| 20260501213032 | 64 | 305 | 2.0 | 4.0 | 0.00 | 0.06 | 0.00 | 33 | 1016.3 |
| 20260501211527 | 63 | 291 | 3.0 | 9.0 | 0.00 | 0.06 | 0.00 | 34 | 1016.6 |
| 20260501210024 | 64 | 244 | 1.0 | 7.0 | 0.00 | 0.06 | 0.00 | 33 | 1017.0 |